Time,TemperatureF,DewpointF,PressureIn,WindDirection,WindDirectionDegrees,WindSpeedMPH,WindSpeedGustMPH,Humidity,HourlyPrecipIn,Conditions,Clouds,dailyrainin,SolarRadiationWatts/m^2,SoftwareType,DateUTC
2013-02-02 00:11:00,47.0,42.0,-100.00,North,2,1.0,4.0,82,0.00,,,-99.99,0.000000,,2013-02-02 08:11:00,
2013-02-02 00:21:00,47.0,42.0,-100.00,North,2,1.0,4.0,82,0.00,,,-99.99,0.000000,,2013-02-02 08:21:00,
2013-02-02 00:31:00,47.0,42.0,-100.00,North,2,1.0,4.0,82,0.00,,,-99.99,0.000000,,2013-02-02 08:31:00,
2013-02-02 00:41:00,47.0,42.0,-100.00,North,2,1.0,4.0,82,0.00,,,-99.99,0.000000,,2013-02-02 08:41:00,
2013-02-02 01:11:00,48.0,38.0,-100.00,West,276,1.0,8.0,69,0.00,,,0.00,0.000000,,2013-02-02 09:11:00,
2013-02-02 01:22:00,48.0,38.0,-100.00,West,276,1.0,8.0,69,0.00,,,0.00,0.000000,,2013-02-02 09:22:00,
2013-02-02 01:31:00,48.0,38.0,-100.00,West,276,1.0,8.0,69,0.00,,,0.00,0.000000,,2013-02-02 09:31:00,
2013-02-02 01:41:00,48.0,38.0,-100.00,West,276,1.0,8.0,69,0.00,,,0.00,0.000000,,2013-02-02 09:41:00,
2013-02-02 01:51:00,48.0,38.0,-100.00,West,276,1.0,8.0,69,0.00,,,0.00,0.000000,,2013-02-02 09:51:00,
2013-02-02 02:11:00,48.0,40.0,-100.00,NNW,345,1.0,4.0,73,0.00,,,0.00,0.000000,,2013-02-02 10:11:00,
2013-02-02 02:21:00,48.0,40.0,-100.00,NNW,345,1.0,4.0,73,0.00,,,0.00,0.000000,,2013-02-02 10:21:00,
2013-02-02 02:31:00,48.0,40.0,-100.00,NNW,345,1.0,4.0,73,0.00,,,0.00,0.000000,,2013-02-02 10:31:00,
2013-02-02 02:41:00,48.0,40.0,-100.00,NNW,345,1.0,4.0,73,0.00,,,0.00,0.000000,,2013-02-02 10:41:00,
2013-02-02 02:51:00,48.0,40.0,-100.00,NNW,345,1.0,4.0,73,0.00,,,0.00,0.000000,,2013-02-02 10:51:00,
2013-02-02 02:52:00,47.0,39.0,-100.00,NNW,335,1.0,3.0,75,0.00,,,0.00,0.000000,,2013-02-02 10:52:00,
2013-02-02 03:21:00,47.0,39.0,-100.00,NNW,335,1.0,3.0,75,0.00,,,0.00,0.000000,,2013-02-02 11:21:00,
2013-02-02 03:31:00,47.0,39.0,-100.00,NNW,335,1.0,3.0,75,0.00,,,0.00,0.000000,,2013-02-02 11:31:00,
2013-02-02 03:41:00,47.0,39.0,-100.00,NNW,335,1.0,3.0,75,0.00,,,0.00,0.000000,,2013-02-02 11:41:00,
2013-02-02 03:52:00,45.0,38.0,-100.00,NW,325,1.0,4.0,77,0.00,,,0.00,0.000000,,2013-02-02 11:52:00,
2013-02-02 04:22:00,45.0,38.0,-100.00,NW,325,1.0,4.0,77,0.00,,,0.00,0.000000,,2013-02-02 12:22:00,
2013-02-02 04:32:00,45.0,38.0,-100.00,NW,325,1.0,4.0,77,0.00,,,0.00,0.000000,,2013-02-02 12:32:00,
2013-02-02 04:42:00,45.0,38.0,-100.00,NW,325,1.0,4.0,77,0.00,,,0.00,0.000000,,2013-02-02 12:42:00,
2013-02-02 05:11:00,46.0,39.0,-100.00,NNW,338,1.0,4.0,75,0.00,,,0.00,0.000000,,2013-02-02 13:11:00,
2013-02-02 05:21:00,46.0,39.0,-100.00,NNW,338,1.0,4.0,75,0.00,,,0.00,0.000000,,2013-02-02 13:21:00,
2013-02-02 05:32:00,46.0,39.0,-100.00,NNW,338,1.0,4.0,75,0.00,,,0.00,0.000000,,2013-02-02 13:32:00,
2013-02-02 05:42:00,46.0,39.0,-100.00,NNW,338,1.0,4.0,75,0.00,,,0.00,0.000000,,2013-02-02 13:42:00,
2013-02-02 05:51:00,46.0,39.0,-100.00,NNW,338,1.0,4.0,75,0.00,,,0.00,0.000000,,2013-02-02 13:51:00,
2013-02-02 05:52:00,44.0,40.0,-100.00,West,264,2.0,3.0,86,0.00,,,0.00,0.000000,,2013-02-02 13:52:00,
2013-02-02 06:11:00,44.0,40.0,-100.00,West,264,2.0,3.0,86,0.00,,,0.00,0.000000,,2013-02-02 14:11:00,
2013-02-02 06:22:00,44.0,40.0,-100.00,West,264,2.0,3.0,86,0.00,,,0.00,0.000000,,2013-02-02 14:22:00,
2013-02-02 06:32:00,44.0,40.0,-100.00,West,264,2.0,3.0,86,0.00,,,0.00,0.000000,,2013-02-02 14:32:00,
2013-02-02 06:42:00,44.0,40.0,-100.00,West,264,2.0,3.0,86,0.00,,,0.00,0.000000,,2013-02-02 14:42:00,
2013-02-02 07:12:00,45.0,41.0,-100.00,NW,316,1.0,3.0,86,0.00,,,0.00,0.000000,,2013-02-02 15:12:00,
2013-02-02 07:21:00,45.0,41.0,-100.00,NW,316,1.0,3.0,86,0.00,,,0.00,0.000000,,2013-02-02 15:21:00,
2013-02-02 07:32:00,45.0,41.0,-100.00,NW,316,1.0,3.0,86,0.00,,,0.00,0.000000,,2013-02-02 15:32:00,
2013-02-02 07:42:00,45.0,41.0,-100.00,NW,316,1.0,3.0,86,0.00,,,0.00,0.000000,,2013-02-02 15:42:00,
2013-02-02 07:51:00,45.0,41.0,-100.00,NW,316,1.0,3.0,86,0.00,,,0.00,0.000000,,2013-02-02 15:51:00,
2013-02-02 08:11:00,44.0,42.0,-100.00,East,100,1.0,3.0,94,0.00,,,0.00,8.000000,,2013-02-02 16:11:00,
2013-02-02 08:22:00,44.0,42.0,-100.00,East,100,1.0,3.0,94,0.00,,,0.00,8.000000,,2013-02-02 16:22:00,
2013-02-02 08:31:00,44.0,42.0,-100.00,East,100,1.0,3.0,94,0.00,,,0.00,8.000000,,2013-02-02 16:31:00,
2013-02-02 08:42:00,44.0,42.0,-100.00,East,100,1.0,3.0,94,0.00,,,0.00,8.000000,,2013-02-02 16:42:00,
2013-02-02 08:51:00,44.0,42.0,-100.00,East,100,1.0,3.0,94,0.00,,,0.00,8.000000,,2013-02-02 16:51:00,
2013-02-02 08:52:00,47.0,45.0,-100.00,SSW,204,1.0,4.0,93,0.00,,,0.00,65.000000,,2013-02-02 16:52:00,
2013-02-02 09:22:00,47.0,45.0,-100.00,SSW,204,1.0,4.0,93,0.00,,,0.00,65.000000,,2013-02-02 17:22:00,
2013-02-02 09:32:00,47.0,45.0,-100.00,SSW,204,1.0,4.0,93,0.00,,,0.00,65.000000,,2013-02-02 17:32:00,
2013-02-02 09:41:00,47.0,45.0,-100.00,SSW,204,1.0,4.0,93,0.00,,,0.00,65.000000,,2013-02-02 17:41:00,
2013-02-02 09:52:00,49.0,47.0,-100.00,SSW,193,3.0,5.0,93,0.00,,,-99.99,151.000000,,2013-02-02 17:52:00,
2013-02-02 10:12:00,49.0,47.0,-100.00,SSW,193,3.0,5.0,93,0.00,,,-99.99,151.000000,,2013-02-02 18:12:00,
2013-02-02 10:22:00,49.0,47.0,-100.00,SSW,193,3.0,5.0,93,0.00,,,-99.99,151.000000,,2013-02-02 18:22:00,
2013-02-02 10:31:00,49.0,47.0,-100.00,SSW,193,3.0,5.0,93,0.00,,,-99.99,151.000000,,2013-02-02 18:31:00,
2013-02-02 10:41:00,49.0,47.0,-100.00,SSW,193,3.0,5.0,93,0.00,,,-99.99,151.000000,,2013-02-02 18:41:00,
2013-02-02 11:21:00,50.0,48.0,-100.00,WSW,257,3.0,5.0,92,0.00,,,0.00,162.000000,,2013-02-02 19:21:00,
2013-02-02 11:32:00,50.0,48.0,-100.00,WSW,257,3.0,5.0,92,0.00,,,0.00,162.000000,,2013-02-02 19:32:00,
2013-02-02 11:41:00,50.0,48.0,-100.00,WSW,257,3.0,5.0,92,0.00,,,0.00,162.000000,,2013-02-02 19:41:00,
2013-02-02 11:51:00,50.0,48.0,-100.00,WSW,257,3.0,5.0,92,0.00,,,0.00,162.000000,,2013-02-02 19:51:00,
2013-02-02 11:52:00,50.0,48.0,-100.00,South,174,3.0,6.0,92,0.00,,,0.00,153.000000,,2013-02-02 19:52:00,
2013-02-02 12:11:00,50.0,48.0,-100.00,South,174,3.0,6.0,92,0.00,,,0.00,153.000000,,2013-02-02 20:11:00,
2013-02-02 12:21:00,50.0,48.0,-100.00,South,174,3.0,6.0,92,0.00,,,0.00,153.000000,,2013-02-02 20:21:00,
2013-02-02 12:32:00,50.0,48.0,-100.00,South,174,3.0,6.0,92,0.00,,,0.00,153.000000,,2013-02-02 20:32:00,
2013-02-02 12:41:00,50.0,48.0,-100.00,South,174,3.0,6.0,92,0.00,,,0.00,153.000000,,2013-02-02 20:41:00,
2013-02-02 13:11:00,52.0,49.0,-100.00,South,185,3.0,6.0,89,0.00,,,0.00,216.000000,,2013-02-02 21:11:00,
2013-02-02 13:21:00,52.0,49.0,-100.00,South,185,3.0,6.0,89,0.00,,,0.00,216.000000,,2013-02-02 21:21:00,
2013-02-02 13:32:00,52.0,49.0,-100.00,South,185,3.0,6.0,89,0.00,,,0.00,216.000000,,2013-02-02 21:32:00,
2013-02-02 13:42:00,52.0,49.0,-100.00,South,185,3.0,6.0,89,0.00,,,0.00,216.000000,,2013-02-02 21:42:00,
2013-02-02 13:51:00,52.0,49.0,-100.00,South,185,3.0,6.0,89,0.00,,,0.00,216.000000,,2013-02-02 21:51:00,
2013-02-02 14:11:00,56.0,51.0,-100.00,SW,222,3.0,6.0,82,0.00,,,0.00,380.000000,,2013-02-02 22:11:00,
2013-02-02 14:21:00,56.0,51.0,-100.00,SW,222,3.0,6.0,82,0.00,,,0.00,380.000000,,2013-02-02 22:21:00,
2013-02-02 14:32:00,56.0,51.0,-100.00,SW,222,3.0,6.0,82,0.00,,,0.00,380.000000,,2013-02-02 22:32:00,
2013-02-02 14:41:00,56.0,51.0,-100.00,SW,222,3.0,6.0,82,0.00,,,0.00,380.000000,,2013-02-02 22:41:00,
2013-02-02 14:51:00,56.0,51.0,-100.00,SW,222,3.0,6.0,82,0.00,,,0.00,380.000000,,2013-02-02 22:51:00,
2013-02-02 14:52:00,58.0,50.0,-100.00,SSW,206,2.0,6.0,76,0.00,,,-99.99,387.000000,,2013-02-02 22:52:00,
2013-02-02 15:21:00,58.0,50.0,-100.00,SSW,206,2.0,6.0,76,0.00,,,-99.99,387.000000,,2013-02-02 23:21:00,
2013-02-02 15:32:00,58.0,50.0,-100.00,SSW,206,2.0,6.0,76,0.00,,,-99.99,387.000000,,2013-02-02 23:32:00,
2013-02-02 15:41:00,58.0,50.0,-100.00,SSW,206,2.0,6.0,76,0.00,,,-99.99,387.000000,,2013-02-02 23:41:00,
2013-02-02 16:11:00,57.0,50.0,-100.00,SW,218,2.0,5.0,77,0.00,,,0.00,233.000000,,2013-02-03 00:11:00,
2013-02-02 16:21:00,57.0,50.0,-100.00,SW,218,2.0,5.0,77,0.00,,,0.00,233.000000,,2013-02-03 00:21:00,
2013-02-02 16:31:00,57.0,50.0,-100.00,SW,218,2.0,5.0,77,0.00,,,0.00,233.000000,,2013-02-03 00:31:00,
2013-02-02 16:41:00,57.0,50.0,-100.00,SW,218,2.0,5.0,77,0.00,,,0.00,233.000000,,2013-02-03 00:41:00,
2013-02-02 16:51:00,57.0,50.0,-100.00,SW,218,2.0,5.0,77,0.00,,,0.00,233.000000,,2013-02-03 00:51:00,
2013-02-02 17:11:00,55.0,50.0,-100.00,SSW,192,2.0,5.0,82,0.00,,,0.00,106.000000,,2013-02-03 01:11:00,
2013-02-02 17:21:00,55.0,50.0,-100.00,SSW,192,2.0,5.0,82,0.00,,,0.00,106.000000,,2013-02-03 01:21:00,
2013-02-02 17:32:00,55.0,50.0,-100.00,SSW,192,2.0,5.0,82,0.00,,,0.00,106.000000,,2013-02-03 01:32:00,
2013-02-02 17:41:00,55.0,50.0,-100.00,SSW,192,2.0,5.0,82,0.00,,,0.00,106.000000,,2013-02-03 01:41:00,
2013-02-02 17:51:00,55.0,50.0,-100.00,SSW,192,2.0,5.0,82,0.00,,,0.00,106.000000,,2013-02-03 01:51:00,
2013-02-02 17:52:00,51.0,48.0,-100.00,North,6,1.0,3.0,90,0.00,,,0.00,18.000000,,2013-02-03 01:52:00,
2013-02-02 18:11:00,51.0,48.0,-100.00,North,6,1.0,3.0,90,0.00,,,0.00,18.000000,,2013-02-03 02:11:00,
2013-02-02 18:21:00,51.0,48.0,-100.00,North,6,1.0,3.0,90,0.00,,,0.00,18.000000,,2013-02-03 02:21:00,
2013-02-02 18:31:00,51.0,48.0,-100.00,North,6,1.0,3.0,90,0.00,,,0.00,18.000000,,2013-02-03 02:31:00,
2013-02-02 18:41:00,51.0,48.0,-100.00,North,6,1.0,3.0,90,0.00,,,0.00,18.000000,,2013-02-03 02:41:00,
2013-02-02 19:21:00,50.0,48.0,-100.00,NNW,332,2.0,5.0,93,0.00,,,0.00,0.000000,,2013-02-03 03:21:00,
2013-02-02 19:31:00,50.0,48.0,-100.00,NNW,332,2.0,5.0,93,0.00,,,0.00,0.000000,,2013-02-03 03:31:00,
2013-02-02 19:41:00,50.0,48.0,-100.00,NNW,332,2.0,5.0,93,0.00,,,0.00,0.000000,,2013-02-03 03:41:00,
2013-02-02 19:51:00,50.0,48.0,-100.00,NNW,332,2.0,5.0,93,0.00,,,0.00,0.000000,,2013-02-03 03:51:00,
2013-02-02 20:11:00,48.0,47.0,-100.00,North,357,1.0,3.0,96,0.00,,,0.00,0.000000,,2013-02-03 04:11:00,
2013-02-02 20:21:00,48.0,47.0,-100.00,North,357,1.0,3.0,96,0.00,,,0.00,0.000000,,2013-02-03 04:21:00,
2013-02-02 20:31:00,48.0,47.0,-100.00,North,357,1.0,3.0,96,0.00,,,0.00,0.000000,,2013-02-03 04:31:00,
2013-02-02 20:42:00,48.0,47.0,-100.00,North,357,1.0,3.0,96,0.00,,,0.00,0.000000,,2013-02-03 04:42:00,
2013-02-02 20:51:00,48.0,47.0,-100.00,North,357,1.0,3.0,96,0.00,,,0.00,0.000000,,2013-02-03 04:51:00,
2013-02-02 20:52:00,46.0,46.0,-100.00,NNE,28,0.0,3.0,99,0.00,,,0.00,0.000000,,2013-02-03 04:52:00,
2013-02-02 21:22:00,46.0,46.0,-100.00,NNE,28,0.0,3.0,99,0.00,,,0.00,0.000000,,2013-02-03 05:22:00,
2013-02-02 21:32:00,46.0,46.0,-100.00,NNE,28,0.0,3.0,99,0.00,,,0.00,0.000000,,2013-02-03 05:32:00,
2013-02-02 21:41:00,46.0,46.0,-100.00,NNE,28,0.0,3.0,99,0.00,,,0.00,0.000000,,2013-02-03 05:41:00,
2013-02-02 21:52:00,45.0,45.0,-100.00,SSW,203,1.0,4.0,100,0.00,,,0.00,0.000000,,2013-02-03 05:52:00,
2013-02-02 22:11:00,45.0,45.0,-100.00,SSW,203,1.0,4.0,100,0.00,,,0.00,0.000000,,2013-02-03 06:11:00,
2013-02-02 22:21:00,45.0,45.0,-100.00,SSW,203,1.0,4.0,100,0.00,,,0.00,0.000000,,2013-02-03 06:21:00,
2013-02-02 22:31:00,45.0,45.0,-100.00,SSW,203,1.0,4.0,100,0.00,,,0.00,0.000000,,2013-02-03 06:31:00,
2013-02-02 22:41:00,45.0,45.0,-100.00,SSW,203,1.0,4.0,100,0.00,,,0.00,0.000000,,2013-02-03 06:41:00,
2013-02-02 22:52:00,47.0,47.0,-100.00,NE,52,2.0,5.0,100,0.00,,,0.00,0.000000,,2013-02-03 06:52:00,
2013-02-02 23:11:00,47.0,47.0,-100.00,NE,52,2.0,5.0,100,0.00,,,0.00,0.000000,,2013-02-03 07:11:00,
2013-02-02 23:21:00,47.0,47.0,-100.00,NE,52,2.0,5.0,100,0.00,,,0.00,0.000000,,2013-02-03 07:21:00,
2013-02-02 23:31:00,47.0,47.0,-100.00,NE,52,2.0,5.0,100,0.00,,,0.00,0.000000,,2013-02-03 07:31:00,
2013-02-02 23:41:00,47.0,47.0,-100.00,NE,52,2.0,5.0,100,0.00,,,0.00,0.000000,,2013-02-03 07:41:00,